Погода в Омске

Погода в Омске : погода сейчас, прогноз погоды и архив. Всё, что Вы хотите узнать о погоде в Омске!

Хотите узнать прогноз погоды в Омске? Тогда Вам сюда: Погода в Омске

Поиск расширенной информации на нашем сайте:

Другие новости

Новости СМИ2

Главная страница сайта

Новости сайта

03.07.2017

Напоминаем, что на нашем специализированном сайте Метеоцентр.Азия вы можете получить высокодетализированные автоматические прогнозы погоды по пунктам России, СНГ и мира в авиационном формате (включающие направление и скорость ветра, видимость, явления погоды, количество и форму облачности, нижнюю и верхнюю границу облачности).

Рекомендуем: Оптовка: печное литье балезино.

Погода в Омске - сегодня

Время (UTC), дата Ветер
(°,м/с) 
Видим.   Явления Облачность Т
(°С)
Тd
(°С)
f(%) Тe
(°С)
Pmin
(гПа)
dP
(гПа)
Po
(мм)
O2
(г/м3)
Тmin Tmax R s Состояние
почвы
12 24.05.18 210 (ЮЗ) 20000 м  {ливн. осадки}  10/6 600 м средняя 
[Cu hum|Ac As]
+20.9 +4.3 34 +21  1007.7  -3.6  745  278           
15 24.05.18 070 (В) 20000 м  гроза без осадков{ливн. осадки}  9/6 600 м кучево-дожд., средняя 
[Cb cap|Ac trans]
+12.6 +11.4 92 +15  1006.7  -1.3  744  284    +21.2     
18 24.05.18 250 (З) 10 км  {гроза, ливн. осадки}  4/0 верхняя 
[Ci fib]
+11.8 +11.1 95 +15  1005.4  -1.3  743  285           
21 24.05.18 290 (З) 10 км    4/0 средняя, верхняя 
[Ac trans|Ci fib]
+12.5 +11 91 +15  1006  0.6  744  284           
00 25.05.18 330 (СЗ) 20000 м    10/4 600 м кучево-дожд., средняя 
[Cb cap|Ac und]
+11.9 +10.8 93 +14  1007.7  1.7  745  286           
03 25.05.18 320 (СЗ) 20000 м  {ливн. осадки}  9/9 400 м кучево-дожд. 
[Cb cap]
+13.9 +11.2 84 +17  1009.5  1.8  746  284  +11.7    0.1     
06 25.05.18 340 (С) 20000 м  в посл. час ливневой дождь  10/8 600 м кучево-дожд., верхняя 
[Cb cap|Cc]
+13.4 +8.1 70 +13  1010.7  1.1  747  286           
09 25.05.18 350 (С) 20000 м  {ливн. осадки}  10/3 600 м средняя 
[Cu hum|Ac As]
+14.6 +5.4 54 +15  1010.7  -0.1  747  285           
12 25.05.18 040 (СВ) 8000 м  слаб. дождь{ливн. осадки}  10/4 300 м средняя 
[Frnb|As op]
+9.7 +6.4 80 +10  1011.9  0.9  748  290           
15 25.05.18 070 (В) 20000 м  в посл. час дождь  10/0 средняя 
[Ac As]
+8.8 +5.8 81 +9  1011.3  -0.6  747  291    +15.7     
18 25.05.18 070 (В) 10 км  {дождь}  10/0 средняя 
[As op]
+8.9 +6.3 84 +9  1010.8  -0.5  747  290           
21 25.05.18 050 (СВ) 4000 м  слаб. ливневой дождь  10/6 600 м кучево-дожд., средняя 
[Cb cap|As op]
+8.3 +5.5 83 +8  1009.4  -1.4  746  291           
00 26.05.18 060 (СВ) 6000 м  слаб. дождь{ливн. осадки}  10/0 средняя 
[As op]
+6.7 +6 95 +5  1008.5  -0.9  745  292           
03 26.05.18 070 (В) 6000 м  слаб. дождь  10/6 450 м средняя 
[Frnb|As op]
+6.3 +5.4 94 +5  1007.5  -1.1  744  292  +6.3    10     
12 26.05.18 030 (СВ) 8-11{13}  20000 м  в посл. час ливневой дождь  10/10 300 м кучево-дожд. 
[Cb cap]
+3.2 +1.9 91 1006.6  0.6  744  296           
15 26.05.18 040 (СВ) 7-12{14}  20000 м    10/10 420 м кучево-дожд. 
[Cb cap]
+3.2 +1.2 87 1008.9  2.3  745  297    +6.4  13     
03 27.05.18 010 (С) 20000 м    10/0 средняя, верхняя 
[Ac trans|Ci fib]
+4.7 -0.5 69 +3  1012.3  1.6  748  296  +2.5    0.5    влажная 
06 27.05.18 020 (С) 5{10}  20000 м    10/6 600 м средняя 
[Sc|As op]
+6 -2.2 56 +4  1011.3  -0.9  747  295           
09 27.05.18 360 (С) 4{11}  20000 м    10/6 600 м средняя 
[Sc|As op]
+7.2 -2.9 49 +6  1011  -0.2  747  294           
12 27.05.18 010 (С) 20000 м    10/5 600 м средняя, верхняя 
[Cu hum|Ac trans|Ci sp]
+8.8 -3.1 43 +8  1010.7  -0.2  747  292           
15 27.05.18 350 (С) 20000 м    3/3 600 м 
[Sc diur, vesp]
+7.5 -3.7 45 +8  1010.4  -0.3  747  293    +9.4       
18 27.05.18 тихо ()   10 км    ясно 
+1.3 -0.5 88 +1  1010.3  -0.5  746  299           
21 27.05.18 210 (ЮЗ) 10 км    ясно 
+1.4 -0 90 +2  1009.3  -1  746  299           
00 28.05.18 220 (ЮЗ) 20000 м    ясно 
+4.2 -1.5 66 +5  1008.2  -0.9  745  296           
03 28.05.18 200 (Ю) 20000 м    9/0 средняя 
[Ac trans]
+9.8 -0.7 48 +10  1006.6  -1.2  744  289  +0.9        влажная 
Время (UTC), дата Ветер
(°,м/с) 
Видим.   Явления Облачность Т
(°С)
Тd
(°С)
f(%) Тe
(°С)
Pmin
(гПа)
dP
(гПа)
Po
(мм)
O2
(г/м3)
Тmin Tmax R s Состояние
почвы

Для получения пояснительной информации подведите курсор к названию столбца.

ПОГОДА в Омске - архив

Всё, что Вы хотите узнать о погоде в Омске - удобно и подробно!

Выберите нужную дату (начиная с 1 января 2015* года) и нажмите кнопку "Найти".
Будут отображены архивные сводки погоды по пункту Омск, начиная с указанной даты.


Отображать данные в формате CSV (для использования в таблицах Excel)


Внимание! Наш архив погоды предназначен исключительно для личного некоммерческого использования в познавательных целях. Если Вам необходимы официальные справки о состоянии погоды (для производственных, юридических, коммерческих и т.п. целей), обращайтесь в органы Росгидромета.

*Примечание: данная дата относится к архиву по метеостанциям СССР (Россия, СНГ, Балтия).
Архив по метеостанциям Зарубежной Европы и Азии (кроме Китая) хранится 10 дней, по другим регионам земного шара (Китай, Африка, Америка, Австралия, Океания) - 1 день.

Омск - район местоположения метеостанции


Название, широта, долгота, высота метеостанции:
Омск (город) 55°ш. 73.4°д. 122 м над ур. моря [Российская Федерация]

Дополнительная информация

В oтличие oт бoльшинства пoгoдных сайтoв мы публикуем пoдрoбную метеoинфoрмацию в детальнoм прoфессиoнальнoм фoрмате.

Характеристики температуры и влажнoсти вoздуха измеряются на высoте 2 м в тени вдали oт зданий и деревьев.
Скoрoсть ветра измеряется на высoте 10 м (на урoвне рoста челoвека скoрoсть ветра ниже в 1.5-2 раза). Если метеoстанция нахoдится в гoрoде или в лесу, тo скoрoсть ветра занижена на 2-4 м/с пo сравнению с oткрытым местoм. Скoрoсть ветра над акватoриями крупных рек и oзёр, а также на вершинах хoлмoв на 2-5 м/с выше, чем в oбычных услoвиях.
Атмoсфернoе давление в разных тoчках местнoсти мoжет значительнo oтличаться oт давления на метеoстанции, в зависимoсти oт услoвий рельефа (при пoдъёме на 10 м давление пoнижается примернo на 1 мм рт.ст.).